Flag for Switzerland Weather past 2 weeks in Geneva, Geneva, Switzerland

Now
36 °F

Chilly.


Feels Like: 30 °F
Forecast: 24 / 38 °F
Wind: 8 mph from South

Location: Geneve-Cointrin

Current Time: Jan 30, 2015 at 6:17:11 AM

Latest Report: Jan 30, 2015 at 5:00 AM


Visibility: N/A

Pressure: 29.12 "Hg

Humidity: 49%

Dew point: 19 °F

Location of GenevaLocation

Historic Weather in Geneva — Graph

°F

Geneva temperature yesterday

Maximum temperature yesterday: 40 °F (at 8:00 PM)
Minimum temperature yesterday: 36 °F (at 12:00 AM)
Average temperature yesterday: 39 °F

Past Weeks' High & Low Weather Summary

 TemperatureHumidityPressure
High51 °F (Jan 15, 4:00 PM)97% (Jan 20, 5:00 AM)30.42 "Hg (Jan 20, 5:00 AM)
Low25 °F (Jan 18, 6:00 AM)46% (Jan 25, 4:00 PM)29.00 "Hg (Jan 30, 12:00 AM)
Average36 °F80%30.02 "Hg
* Reported Jan 15 5:00 AM — Jan 30 5:00 AM, Geneva, Weather by CustomWeather, © 2014

Note: Actual official high and low records may vary slightly from our data, if they occured in-between our weather recording intervals... More about our weather records

Advertising

Geneva weather history for previous 24 hours

 ConditionsComfort  
Time TempWeatherWind HumidityBarometerVisibility
5:00 AM
Jan 30
36 °FChilly.8 mph49%29.12 "HgN/A
3:00 AM40 °FChilly.12 mph53%29.06 "HgN/A
2:00 AM39 °FChilly.12 mph83%29.06 "HgN/A
1:00 AM41 °FLight rain. Overcast.21 mph78%29.00 "Hg7 mi
12:00 AM39 °FChilly.24 mph88%29.00 "HgN/A
11:00 PM
Jan 29
38 °FChilly.18 mph89%29.03 "HgN/A
9:00 PM40 °FChilly.16 mph90%29.09 "HgN/A
8:00 PM40 °FQuite cool.16 mph87%29.12 "HgN/A
7:00 PM40 °FLight rain. Low clouds.16 mph87%29.18 "Hg5 mi
6:00 PM39 °FChilly.20 mph88%29.26 "HgN/A
5:00 PM39 °FChilly.17 mph87%29.29 "HgN/A
4:00 PM39 °FLight rain. Low clouds.18 mph88%29.35 "Hg6 mi
3:00 PM39 °FChilly.15 mph87%29.41 "HgN/A
2:00 PM39 °FChilly.15 mph88%29.47 "HgN/A
1:00 PM38 °FLight rain. Low clouds.17 mph88%29.54 "Hg6 mi
12:00 PM39 °FChilly.14 mph88%29.59 "HgN/A
11:00 AM39 °FChilly.14 mph83%29.63 "HgN/A
10:00 AM38 °FRain. Low clouds.15 mph89%29.67 "Hg6 mi
9:00 AM39 °FChilly.12 mph83%29.69 "HgN/A
8:00 AM39 °FChilly.15 mph88%29.69 "HgN/A
7:00 AM39 °FLight rain. Low clouds.12 mph90%29.71 "Hg7 mi
6:00 AM39 °FChilly.15 mph88%29.72 "HgN/A
Weather by CustomWeather, © 2014

See weather overviewHow to use our weather pages